Weather in Lenskoye

Russia / Sverdlovsk Oblast     58°09′20″N   63°11′59″E
temp.,
°C
wind,
m/s
gust,
m/s
humid.,
%
clouds,
%
prec.,
mm/h
press.,
hPa
HPBL,
m
12 may, wed
wed1223:00+17nnw275864 0.0 1025176
02:00+13n237994 0.0 102559
05:00+11n2690100 0.0 1027173
08:00+14nne23555 0.0 1028458
11:00+18nnw2438100 0.0 10281358
14:00+21nw353399 0.0 10271822
17:00+22nw3533100 0.0 10261885
20:00+19w224887 0.0 102624
13 may, thu
thu1323:00+16wsw3858100 0.0 1025153
02:00+14wnw3671100 0.0 1025115
05:00+13wnw39755 0.0 1025182
08:00+18nw475529 0.0 1025399
11:00+24nw58405 0.0 10241896
14:00+27nnw573213 0.0 10242648
17:00+26nne563319 0.0 10242006
20:00+22ene22505 0.0 102416
14 may, fri
fri1423:00+17se22615 0.0 102511
02:00+16s226813 0.0 102637
05:00+15ssw26730 0.0 1026103
08:00+20wsw35526 0.0 1025282
11:00+26w4634100 0.0 10241885
14:00+28w572750 0.0 10222863
17:00+29w572445 0.0 10212991
20:00+24wsw35395 0.0 102088
15 may, sat
sat1523:00+20wsw4134725 0.0 1020283
02:00+19wsw41356100 0.0 1019333
05:00+18wsw4126310 0.0 1020336
08:00+22w495484 0.0 1020459
11:00+26w593810 0.0 10191764
14:00+29w6102737 0.0 10183177
17:00+29w69275 0.0 10182952
20:00+25wsw4113886 0.0 1017379
16 may, sun
sun1623:00+21wsw413467 0.0 1017380
02:00+19wsw4115518 0.0 1017265
05:00+17wsw39658 0.0 1017208
08:00+22wsw494884 0.0 1017447
11:00+28w610265 0.0 10161471
14:00+31w610185 0.0 10162318
17:00+31w592072 0.0 10143215
20:00+26wsw410325 0.0 1014337